This demonstration page uses our WeatherBlox Daily Observations layout. Learn more.

Hourly Observations for June 27, 2020

Temp ( °F °C ) Dew Point ( °F °C ) Humidity (%) Winds ( mph kmh ) Pressure ( in mb ) Visibility ( mi km ) Precip ( " mm )
12:15 am 00:15 Partly Cloudy 73 23 64 18 74 74 SW 5 7 29.94 1014 10 16.0934 0 0
12:35 am 00:35 Partly Cloudy 73 23 64 18 74 74 SW 7 11 29.94 1014 10 16.0934 0 0
12:55 am 00:55 Partly Cloudy 73 23 63 17 69 69 WSW 6 9 29.94 1014 10 16.0934 0 0
1:15 am 01:15 Mostly Cloudy 73 23 63 17 69 69 W 5 7 29.94 1014 10 16.0934 0 0
1:35 am 01:35 Cloudy 73 23 63 17 69 69 WSW 3 6 29.94 1014 10 16.0934 0 0
1:55 am 01:55 Mostly Cloudy 73 23 63 17 69 69 W 6 9 29.94 1014 10 16.0934 0 0
2:15 am 02:15 Cloudy 72 22 64 18 78 78 W 5 7 29.94 1014 10 16.0934 0 0
2:35 am 02:35 Mostly Cloudy 72 22 64 18 78 78 W 6 9 29.93 1013 10 16.0934 0 0
2:55 am 02:55 Partly Cloudy 73 23 63 17 69 69 WSW 7 11 29.94 1014 10 16.0934 0 0
3:15 am 03:15 Cloudy 73 23 63 17 69 69 S 7 11 29.93 1013 10 16.0934 0 0
3:35 am 03:35 Cloudy 73 23 64 18 74 74 SW 6 9 29.93 1013 10 16.0934 0 0
3:55 am 03:55 Mostly Cloudy 73 23 64 18 74 74 W 6 9 29.92 1013 10 16.0934 0 0
4:15 am 04:15 Mostly Cloudy 73 23 64 18 74 74 WSW 5 7 29.92 1013 10 16.0934 0 0
4:35 am 04:35 Mostly Cloudy 73 23 64 18 74 74 WSW 5 7 29.92 1013 10 16.0934 0 0
4:55 am 04:55 Mostly Cloudy 72 22 64 18 78 78 W 5 7 29.91 1013 10 16.0934 0 0
5:15 am 05:15 Cloudy 72 22 64 18 78 78 SW 3 6 29.92 1013 10 16.0934 0 0
5:35 am 05:35 Cloudy 73 23 64 18 74 74 Calm 29.92 1013 10 16.0934 0 0
5:55 am 05:55 Mostly Cloudy 73 23 64 18 74 74 S 5 7 29.91 1013 10 16.0934 0 0
6:15 am 06:15 Partly Cloudy 72 22 64 18 78 78 S 5 7 29.91 1013 10 16.0934 0 0
6:35 am 06:35 Partly Cloudy 72 22 64 18 78 78 S 6 9 29.91 1013 10 16.0934 0 0
6:55 am 06:55 Sunny 72 22 64 18 78 78 S 5 7 29.91 1013 10 16.0934 0 0
7:15 am 07:15 Partly Cloudy 72 22 66 19 83 83 SSW 3 6 29.92 1013 10 16.0934 0 0
7:35 am 07:35 Partly Cloudy 73 23 66 19 78 78 SSW 3 6 29.91 1013 10 16.0934 0 0
7:55 am 07:55 Sunny 73 23 68 20 83 83 Calm 29.91 1013 10 16.0934 0 0
8:15 am 08:15 Sunny 73 23 68 20 83 83 S 6 9 29.9 1012 10 16.0934 0 0
8:35 am 08:35 Partly Cloudy 73 23 68 20 83 83 S 8 13 29.89 1012 10 16.0934 0 0
8:55 am 08:55 Sunny 73 23 68 20 83 83 SSW 5 7 29.89 1012 10 16.0934 0 0
9:15 am 09:15 Sunny 75 24 68 20 78 78 SSW 6 9 29.89 1012 10 16.0934 0 0
9:35 am 09:35 Sunny 77 25 68 20 74 74 S 5 7 29.87 1012 10 16.0934 0 0
9:55 am 09:55 Sunny 79 26 70 21 74 74 SSW 7 11 29.86 1011 10 16.0934 0 0
10:15 am 10:15 Sunny 79 26 68 20 70 70 SSW 7 11 29.86 1011 10 16.0934 0 0
10:35 am 10:35 Sunny 81 27 70 21 70 70 SW 6 9 29.86 1011 10 16.0934 0 0
10:55 am 10:55 Sunny 82 28 70 21 66 66 SSW 10 17 29.85 1011 10 16.0934 0 0
11:15 am 11:15 Sunny 84 29 68 20 58 58 SSW 10 17 29.85 1011 10 16.0934 0 0
11:35 am 11:35 Sunny 86 30 68 20 55 55 SW 9 15 29.85 1011 10 16.0934 0 0
11:55 am 11:55 Sunny 86 30 70 21 59 59 WSW 6 9 29.85 1011 10 16.0934 0 0
12:15 pm 12:15 Partly Cloudy 88 31 70 21 55 55 SW 10 17 29.85 1011 10 16.0934 0 0
12:35 pm 12:35 Partly Cloudy 86 30 70 21 59 59 WSW 10 17 29.85 1011 10 16.0934 0 0
12:55 pm 12:55 Sunny 86 30 68 20 55 55 SW 9 15 29.84 1010 10 16.0934 0 0
1:15 pm 13:15 Mostly Cloudy 86 30 70 21 59 59 S 9 15 29.84 1010 10 16.0934 0 0
1:35 pm 13:35 Mostly Cloudy 86 30 70 21 59 59 SW 8 13 29.83 1010 10 16.0934 0 0
1:55 pm 13:55 Partly Cloudy 86 30 72 22 62 62 WSW 8 13 29.83 1010 10 16.0934 0 0
2:15 pm 14:15 Partly Cloudy 90 32 70 21 52 52 W 12 19 29.83 1010 10 16.0934 0 0
2:35 pm 14:35 Mostly Cloudy 90 32 70 21 52 52 SW 13 20 29.82 1010 10 16.0934 0 0
2:55 pm 14:55 Mostly Cloudy 90 32 70 21 52 52 WSW 13 20 29.81 1009 10 16.0934 0 0
3:15 pm 15:15 Mostly Cloudy 90 32 70 21 52 52 WSW 12 19 29.81 1009 10 16.0934 0 0
3:35 pm 15:35 Partly Cloudy 91 33 68 20 46 46 WNW 15 24 29.79 1009 10 16.0934 0 0
3:55 pm 15:55 Mostly Cloudy 90 32 68 20 49 49 NW 9 15 29.8 1009 10 16.0934 0 0
4:15 pm 16:15 Mostly Cloudy 90 32 68 20 49 49 NW 9 15 29.79 1009 10 16.0934 0 0
4:35 pm 16:35 Partly Cloudy 90 32 66 19 46 46 NW 13 20 29.79 1009 10 16.0934 0 0
4:55 pm 16:55 Sunny 88 31 66 19 49 49 NW 13 20 29.78 1008 10 16.0934 0 0
5:15 pm 17:15 Sunny 88 31 68 20 52 52 WNW 7 11 29.79 1009 10 16.0934 0 0
5:35 pm 17:35 Partly Cloudy 88 31 68 20 52 52 NW 8 13 29.79 1009 10 16.0934 0 0
5:55 pm 17:55 Partly Cloudy 88 31 70 21 55 55 NW 8 13 29.78 1008 10 16.0934 0 0
6:15 pm 18:15 Sunny 88 31 70 21 55 55 WNW 3 6 29.78 1008 10 16.0934 0 0
6:35 pm 18:35 Sunny 86 30 68 20 55 55 NW 6 9 29.78 1008 10 16.0934 0 0
6:55 pm 18:55 Sunny 86 30 68 20 55 55 NW 9 15 29.78 1008 10 16.0934 0 0
7:15 pm 19:15 Sunny 86 30 68 20 55 55 NW 6 9 29.78 1008 10 16.0934 0 0
7:35 pm 19:35 Sunny 84 29 70 21 62 62 Calm 29.78 1008 10 16.0934 0 0
7:55 pm 19:55 Sunny 84 29 68 20 58 58 Calm 29.79 1009 10 16.0934 0 0
8:15 pm 20:15 Sunny 84 29 68 20 58 58 NNW 3 6 29.78 1008 10 16.0934 0 0
8:35 pm 20:35 Sunny 82 28 70 21 66 66 Calm 29.79 1009 10 16.0934 0 0
8:55 pm 20:55 Clear 81 27 72 22 74 74 Calm 29.79 1009 10 16.0934 0 0
9:15 pm 21:15 Clear 79 26 72 22 79 79 Calm 29.79 1009 10 16.0934 0 0
9:35 pm 21:35 Clear 81 27 70 21 70 70 Calm 29.79 1009 10 16.0934 0 0
9:55 pm 21:55 Clear 79 26 72 22 79 79 Calm 29.8 1009 10 16.0934 0 0
10:15 pm 22:15 Clear 79 26 72 22 79 79 Calm 29.8 1009 10 16.0934 0 0
10:35 pm 22:35 Mostly Cloudy 77 25 72 22 83 83 Calm 29.8 1009 10 16.0934 0 0
10:55 pm 22:55 Partly Cloudy 79 26 70 21 74 74 Calm 29.79 1009 10 16.0934 0 0
11:15 pm 23:15 Clear 79 26 70 21 74 74 NNW 6 9 29.79 1009 10 16.0934 0 0
11:35 pm 23:35 Partly Cloudy 77 25 68 20 74 74 N 9 15 29.8 1009 10 16.0934 0 0
11:55 pm 23:55 Partly Cloudy 77 25 68 20 74 74 N 5 7 29.8 1009 10 16.0934 0 0

Powered by AerisWeather